Location: Unspecified
(51.0000°N, 12.0000°E)
Time: 22:17:32
(UTC+01:00)

N. Korean satellite - Pass Details

Date: 25 October 2019
Orbit: 456 x 506 km, 97.2° (Epoch: 14 November)

Event Time Altitude Azimuth Distance (km) Brightness Sun altitude
Rises 06:12:21 0° 27° (NNE) 2,575 10.6 -16.2°
Reaches altitude 10° 06:14:58 10° 47° (NE) 1,697 10.0 -15.7°
Maximum altitude 06:17:29 18° 91° (E) 1,298 9.9 -15.4°
Drops below altitude 10° 06:20:01 10° 135° (SE) 1,703 10.0 -15.0°
Sets 06:22:38 0° 155° (SSE) 2,588 10.6 -14.5°
